When you browse on this site, cookies collect data to enhance your experience and personalize the content and advertising you see.
Visit our Privacy Policy to learn more. By continuing to use the site, you agree to this use of cookies and data.
  • In Spain
  • List of Countries
  • For 7 days
  • Water Temperature
  • Weather Map
  • Weather Widgets
  • user-avatar
    Login

    Hourly Weather El Quseir

    Today, 21 October, Monday

    Time Temperature Precipitation Wind Pressure Humidity
    00:00 +27°C° 0 mm 6 mps 759 mmHg 36%
    01:00 +27°C° 0 mm 6 mps 758 mmHg 37%
    02:00 +27°C° 0 mm 6 mps 758 mmHg 36%
    03:00 +26°C° 0 mm 6 mps 758 mmHg 37%
    04:00 +26°C° 0 mm 7 mps 758 mmHg 37%
    05:00 +26°C° 0 mm 7 mps 758 mmHg 38%
    06:00 +28°C° 0 mm 7 mps 758 mmHg 33%
    07:00 +30°C° 0 mm 7 mps 758 mmHg 29%
    08:00 +33°C° 0 mm 6 mps 759 mmHg 25%
    09:00 +35°C° 0 mm 6 mps 758 mmHg 24%
    10:00 +36°C° 0 mm 6 mps 758 mmHg 22%
    11:00 +37°C° 0 mm 5 mps 758 mmHg 21%
    12:00 +37°C° 0 mm 5 mps 758 mmHg 22%
    13:00 +37°C° 0 mm 4 mps 757 mmHg 23%
    14:00 +37°C° 0 mm 4 mps 756 mmHg 25%
    15:00 +35°C° 0 mm 4 mps 756 mmHg 28%
    16:00 +33°C° 0 mm 4 mps 756 mmHg 31%
    17:00 +31°C° 0 mm 3 mps 756 mmHg 35%
    18:00 +30°C° 0 mm 4 mps 756 mmHg 35%
    19:00 +29°C° 0 mm 4 mps 756 mmHg 35%
    20:00 +28°C° 0 mm 5 mps 756 mmHg 36%
    21:00 +28°C° 0 mm 5 mps 756 mmHg 36%
    22:00 +27°C° 0 mm 4 mps 756 mmHg 36%
    23:00 +27°C° 0 mm 4 mps 756 mmHg 36%

    Tomorrow, 22 October, Tuesday

    Time Temperature Precipitation Wind Pressure Humidity
    00:00 +26°C° 0 mm 4 mps 756 mmHg 36%
    01:00 +26°C° 0 mm 4 mps 755 mmHg 37%
    02:00 +26°C° 0 mm 3 mps 755 mmHg 37%
    03:00 +25°C° 0 mm 3 mps 755 mmHg 38%
    04:00 +25°C° 0 mm 3 mps 755 mmHg 39%
    05:00 +23°C° 0 mm 4 mps 756 mmHg 40%
    06:00 +27°C° 0 mm 4 mps 756 mmHg 35%
    07:00 +30°C° 0 mm 4 mps 756 mmHg 30%
    08:00 +33°C° 0 mm 4 mps 756 mmHg 25%
    09:00 +34°C° 0 mm 4 mps 756 mmHg 25%
    10:00 +35°C° 0 mm 4 mps 756 mmHg 25%
    11:00 +37°C° 0 mm 4 mps 756 mmHg 25%
    12:00 +36°C° 0 mm 4 mps 755 mmHg 27%
    13:00 +35°C° 0 mm 3 mps 755 mmHg 29%
    14:00 +35°C° 0 mm 2 mps 754 mmHg 32%
    15:00 +34°C° 0 mm 2 mps 754 mmHg 34%
    16:00 +32°C° 0 mm 2 mps 755 mmHg 37%
    17:00 +30°C° 0 mm 2 mps 755 mmHg 40%
    18:00 +30°C° 0 mm 2 mps 755 mmHg 40%
    19:00 +30°C° 0 mm 3 mps 755 mmHg 39%
    20:00 +29°C° 0 mm 4 mps 755 mmHg 39%
    21:00 +29°C° 0 mm 4 mps 755 mmHg 37%
    22:00 +29°C° 0 mm 3 mps 755 mmHg 35%
    23:00 +29°C° 0 mm 3 mps 755 mmHg 33%

    Day after tomorrow, 23 October, Wednesday

    Time Temperature Precipitation Wind Pressure Humidity
    00:00 +29°C° 0 mm 4 mps 755 mmHg 34%
    01:00 +29°C° 0 mm 4 mps 755 mmHg 34%
    02:00 +28°C° 0 mm 5 mps 755 mmHg 34%
    03:00 +27°C° 0 mm 5 mps 755 mmHg 39%
    04:00 +26°C° 0 mm 5 mps 755 mmHg 44%
    05:00 +23°C° 0 mm 6 mps 755 mmHg 49%
    06:00 +26°C° 0 mm 5 mps 756 mmHg 45%
    07:00 +28°C° 0 mm 5 mps 756 mmHg 40%
    08:00 +30°C° 0 mm 5 mps 756 mmHg 35%
    09:00 +32°C° 0 mm 5 mps 756 mmHg 35%
    10:00 +33°C° 0 mm 6 mps 756 mmHg 35%
    11:00 +34°C° 0 mm 6 mps 756 mmHg 35%
    12:00 +34°C° 0 mm 5 mps 756 mmHg 35%
    13:00 +35°C° 0 mm 5 mps 755 mmHg 35%
    14:00 +35°C° 0 mm 4 mps 755 mmHg 35%
    15:00 +33°C° 0 mm 3 mps 755 mmHg 40%
    16:00 +31°C° 0 mm 3 mps 755 mmHg 45%
    17:00 +29°C° 0 mm 2 mps 755 mmHg 49%
    18:00 +28°C° 0 mm 2 mps 756 mmHg 53%
    19:00 +27°C° 0 mm 3 mps 756 mmHg 57%
    20:00 +26°C° 0 mm 3 mps 756 mmHg 61%
    21:00 +25°C° 0 mm 4 mps 757 mmHg 60%
    22:00 +25°C° 0 mm 4 mps 757 mmHg 59%
    23:00 +25°C° 0 mm 5 mps 757 mmHg 59%

    24 October, Thursday

    Time Temperature Precipitation Wind Pressure Humidity
    00:00 +23°C° 0 mm 5 mps 756 mmHg 59%
    01:00 +23°C° 0 mm 6 mps 756 mmHg 60%
    02:00 +23°C° 0 mm 6 mps 756 mmHg 60%
    03:00 +22°C° 0 mm 7 mps 756 mmHg 60%
    04:00 +22°C° 0 mm 7 mps 756 mmHg 60%
    05:00 +22°C° 0 mm 7 mps 756 mmHg 60%
    06:00 +24°C° 0 mm 7 mps 757 mmHg 54%
    07:00 +27°C° 0 mm 7 mps 757 mmHg 47%
    08:00 +29°C° 0 mm 6 mps 757 mmHg 41%
    09:00 +30°C° 0 mm 6 mps 757 mmHg 38%
    10:00 +32°C° 0 mm 6 mps 757 mmHg 34%
    11:00 +34°C° 0 mm 6 mps 757 mmHg 31%
    12:00 +34°C° 0 mm 6 mps 757 mmHg 32%
    13:00 +34°C° 0 mm 6 mps 756 mmHg 32%
    14:00 +34°C° 0 mm 5 mps 756 mmHg 33%
    15:00 +32°C° 0 mm 5 mps 756 mmHg 38%
    16:00 +30°C° 0 mm 4 mps 756 mmHg 43%
    17:00 +28°C° 0 mm 4 mps 756 mmHg 48%
    18:00 +27°C° 0 mm 3 mps 756 mmHg 53%
    19:00 +25°C° 0 mm 3 mps 757 mmHg 58%
    20:00 +24°C° 0 mm 3 mps 757 mmHg 63%
    21:00 +24°C° 0 mm 3 mps 757 mmHg 60%
    22:00 +22°C° 0 mm 4 mps 757 mmHg 56%
    23:00 +22°C° 0 mm 5 mps 757 mmHg 53%

    25 October, Friday

    Time Temperature Precipitation Wind Pressure Humidity
    00:00 +22°C° 0 mm 5 mps 757 mmHg 52%
    01:00 +22°C° 0 mm 6 mps 757 mmHg 51%
    02:00 +22°C° 0 mm 7 mps 757 mmHg 49%
    03:00 +22°C° 0 mm 7 mps 757 mmHg 48%
    04:00 +21°C° 0 mm 7 mps 757 mmHg 47%
    05:00 +21°C° 0 mm 7 mps 757 mmHg 46%
    06:00 +23°C° 0 mm 7 mps 758 mmHg 41%
    07:00 +26°C° 0 mm 7 mps 758 mmHg 36%
    08:00 +28°C° 0 mm 6 mps 758 mmHg 31%
    09:00 +29°C° 0 mm 6 mps 758 mmHg 30%
    10:00 +32°C° 0 mm 6 mps 758 mmHg 28%
    11:00 +33°C° 0 mm 6 mps 758 mmHg 27%
    12:00 +33°C° 0 mm 6 mps 758 mmHg 29%
    13:00 +32°C° 0 mm 7 mps 757 mmHg 31%
    14:00 +32°C° 0 mm 7 mps 757 mmHg 34%
    15:00 +30°C° 0 mm 6 mps 757 mmHg 38%
    16:00 +29°C° 0 mm 5 mps 757 mmHg 42%
    17:00 +28°C° 0 mm 4 mps 757 mmHg 46%
    18:00 +27°C° 0 mm 5 mps 757 mmHg 50%
    19:00 +25°C° 0 mm 5 mps 758 mmHg 55%
    20:00 +23°C° 0 mm 6 mps 758 mmHg 59%
    21:00 +23°C° 0 mm 6 mps 758 mmHg 58%
    22:00 +22°C° 0 mm 6 mps 758 mmHg 56%
    23:00 +22°C° 0 mm 6 mps 758 mmHg 55%

    26 October, Saturday

    Time Temperature Precipitation Wind Pressure Humidity
    00:00 +21°C° 0 mm 6 mps 758 mmHg 54%
    01:00 +21°C° 0 mm 6 mps 758 mmHg 53%
    02:00 +21°C° 0 mm 6 mps 758 mmHg 51%
    03:00 +21°C° 0 mm 6 mps 758 mmHg 51%
    04:00 +21°C° 0 mm 7 mps 758 mmHg 51%
    05:00 +21°C° 0 mm 7 mps 758 mmHg 51%
    06:00 +23°C° 0 mm 7 mps 758 mmHg 47%
    07:00 +26°C° 0 mm 8 mps 759 mmHg 43%
    08:00 +28°C° 0 mm 8 mps 759 mmHg 39%
    09:00 +29°C° 0 mm 8 mps 759 mmHg 36%
    10:00 +31°C° 0 mm 8 mps 759 mmHg 33%
    11:00 +32°C° 0 mm 7 mps 759 mmHg 31%
    12:00 +32°C° 0 mm 7 mps 758 mmHg 34%
    13:00 +32°C° 0 mm 7 mps 758 mmHg 38%
    14:00 +30°C° 0 mm 7 mps 757 mmHg 42%
    15:00 +29°C° 0 mm 6 mps 757 mmHg 45%
    16:00 +28°C° 0 mm 5 mps 757 mmHg 48%
    17:00 +27°C° 0 mm 4 mps 757 mmHg 52%
    18:00 +26°C° 0 mm 5 mps 757 mmHg 54%
    19:00 +24°C° 0 mm 6 mps 757 mmHg 57%
    20:00 +23°C° 0 mm 6 mps 758 mmHg 60%
    21:00 +22°C° 0 mm 6 mps 758 mmHg 57%
    22:00 +22°C° 0 mm 6 mps 758 mmHg 55%
    23:00 +21°C° 0 mm 6 mps 758 mmHg 52%

    27 October, Sunday

    Time Temperature Precipitation Wind Pressure Humidity
    00:00 +22°C° 0 mm 6 mps 758 mmHg 50%
    01:00 +22°C° 0 mm 6 mps 757 mmHg 48%
    02:00 +22°C° 0 mm 6 mps 757 mmHg 47%
    03:00 +21°C° 0 mm 7 mps 757 mmHg 48%
    04:00 +21°C° 0 mm 7 mps 757 mmHg 49%
    05:00 +20°C° 0 mm 8 mps 758 mmHg 50%
    06:00 +22°C° 0 mm 8 mps 758 mmHg 45%
    07:00 +26°C° 0 mm 8 mps 758 mmHg 41%
    08:00 +28°C° 0 mm 8 mps 758 mmHg 37%
    09:00 +29°C° 0 mm 7 mps 758 mmHg 35%
    10:00 +30°C° 0 mm 7 mps 758 mmHg 33%
    11:00 +33°C° 0 mm 7 mps 758 mmHg 31%
    12:00 +33°C° 0 mm 7 mps 757 mmHg 33%
    13:00 +33°C° 0 mm 6 mps 757 mmHg 35%
    14:00 +33°C° 0 mm 6 mps 756 mmHg 37%
    15:00 +30°C° 0 mm 6 mps 756 mmHg 42%
    16:00 +29°C° 0 mm 5 mps 756 mmHg 48%
    17:00 +28°C° 0 mm 5 mps 756 mmHg 53%
    18:00 +26°C° 0 mm 6 mps 757 mmHg 58%
    19:00 +24°C° 0 mm 6 mps 757 mmHg 62%
    20:00 +23°C° 0 mm 7 mps 757 mmHg 66%
    21:00 +22°C° 0 mm 7 mps 757 mmHg 66%
    22:00 +22°C° 0 mm 6 mps 757 mmHg 65%
    23:00 +21°C° 0 mm 6 mps 757 mmHg 64%
    Show more